Time,TemperatureF,DewpointF,PressureIn,WindDirection,WindDirectionDegrees,WindSpeedMPH,WindSpeedGustMPH,Humidity,HourlyPrecipIn,Conditions,Clouds,dailyrainin,SoftwareType,DateUTC
2013-03-06 00:01:00,63.6,58.0,29.89,SSW,208,7.0,24.0,81,0.00,,,0.00,weatherlink.com 1.10,2013-03-06 05:01:00,
2013-03-06 00:16:00,63.6,58.0,29.88,SW,216,1.0,17.0,82,0.00,,,0.00,weatherlink.com 1.10,2013-03-06 05:16:00,
2013-03-06 00:31:00,63.6,58.0,29.88,WNW,289,5.0,18.0,83,0.00,,,0.00,weatherlink.com 1.10,2013-03-06 05:31:00,
2013-03-06 00:46:00,63.8,59.0,29.87,WSW,252,1.0,18.0,83,0.00,,,0.00,weatherlink.com 1.10,2013-03-06 05:46:00,
2013-03-06 01:01:00,63.8,59.0,29.86,West,264,4.0,18.0,83,0.00,,,0.00,weatherlink.com 1.10,2013-03-06 06:01:00,
2013-03-06 01:16:00,64.1,59.0,29.86,South,191,8.0,19.0,84,0.00,,,0.00,weatherlink.com 1.10,2013-03-06 06:16:00,
2013-03-06 01:31:00,64.5,60.0,29.86,SSW,207,9.0,14.0,84,0.00,,,0.00,weatherlink.com 1.10,2013-03-06 06:31:00,
2013-03-06 01:46:00,63.4,60.0,29.86,WSW,257,9.0,15.0,88,0.02,,,0.02,weatherlink.com 1.10,2013-03-06 06:46:00,
2013-03-06 02:01:00,62.5,59.0,29.89,North,350,4.0,24.0,88,0.03,,,0.03,weatherlink.com 1.10,2013-03-06 07:01:00,
2013-03-06 02:16:00,60.2,56.0,29.88,WNW,296,4.0,19.0,87,0.03,,,0.03,weatherlink.com 1.10,2013-03-06 07:16:00,
2013-03-06 02:31:00,59.1,56.0,29.88,West,273,10.0,14.0,88,0.03,,,0.03,weatherlink.com 1.10,2013-03-06 07:31:00,
2013-03-06 02:46:00,58.6,55.0,29.88,West,263,3.0,18.0,88,0.01,,,0.03,weatherlink.com 1.10,2013-03-06 07:46:00,
2013-03-06 03:02:00,57.9,54.0,29.89,WNW,297,5.0,21.0,86,0.00,,,0.03,weatherlink.com 1.10,2013-03-06 08:02:00,
2013-03-06 03:17:00,57.0,51.0,29.89,WNW,293,3.0,20.0,80,0.00,,,0.03,weatherlink.com 1.10,2013-03-06 08:17:00,
2013-03-06 03:32:00,56.3,50.0,29.89,WNW,299,9.0,21.0,78,0.00,,,0.03,weatherlink.com 1.10,2013-03-06 08:32:00,
2013-03-06 03:47:00,55.1,48.0,29.91,WNW,293,7.0,15.0,77,0.00,,,0.03,weatherlink.com 1.10,2013-03-06 08:47:00,
2013-03-06 04:02:00,53.2,44.0,29.93,WNW,290,14.0,23.0,71,0.00,,,0.03,weatherlink.com 1.10,2013-03-06 09:02:00,
2013-03-06 04:17:00,51.3,42.0,29.94,WSW,245,10.0,21.0,71,0.00,,,0.03,weatherlink.com 1.10,2013-03-06 09:17:00,
2013-03-06 04:32:00,49.5,40.0,29.96,NW,322,5.0,25.0,71,0.00,,,0.03,weatherlink.com 1.10,2013-03-06 09:32:00,
2013-03-06 04:47:00,48.3,40.0,29.96,NNE,17,4.0,19.0,74,0.00,,,0.03,weatherlink.com 1.10,2013-03-06 09:47:00,
2013-03-06 05:02:00,47.5,40.0,29.97,NW,319,5.0,17.0,75,0.00,,,0.03,weatherlink.com 1.10,2013-03-06 10:02:00,
2013-03-06 05:17:00,46.8,39.0,29.98,WSW,242,8.0,19.0,75,0.00,,,0.03,weatherlink.com 1.10,2013-03-06 10:17:00,
2013-03-06 05:32:00,46.1,39.0,29.98,WNW,286,4.0,13.0,77,0.00,,,0.03,weatherlink.com 1.10,2013-03-06 10:32:00,
2013-03-06 05:47:00,45.6,38.0,29.99,NW,323,3.0,15.0,75,0.00,,,0.03,weatherlink.com 1.10,2013-03-06 10:47:00,
2013-03-06 06:02:00,45.1,37.0,30.00,NW,314,3.0,16.0,72,0.00,,,0.03,weatherlink.com 1.10,2013-03-06 11:02:00,
2013-03-06 06:17:00,44.5,36.0,30.00,NW,308,13.0,14.0,71,0.00,,,0.03,weatherlink.com 1.10,2013-03-06 11:17:00,
2013-03-06 06:32:00,44.2,35.0,30.00,NW,315,3.0,16.0,71,0.00,,,0.03,weatherlink.com 1.10,2013-03-06 11:32:00,
2013-03-06 06:47:00,44.0,35.0,30.01,WNW,288,4.0,23.0,71,0.00,,,0.03,weatherlink.com 1.10,2013-03-06 11:47:00,
2013-03-06 07:03:00,44.1,36.0,30.01,WNW,291,9.0,20.0,72,0.00,,,0.03,weatherlink.com 1.10,2013-03-06 12:03:00,
2013-03-06 07:17:00,44.8,36.0,30.02,NW,314,1.0,16.0,70,0.00,,,0.03,weatherlink.com 1.10,2013-03-06 12:17:00,
2013-03-06 07:33:00,46.1,36.0,30.02,WNW,298,2.0,16.0,67,0.00,,,0.03,weatherlink.com 1.10,2013-03-06 12:33:00,
2013-03-06 07:48:00,47.2,35.0,30.02,NNW,339,9.0,17.0,63,0.00,,,0.03,weatherlink.com 1.10,2013-03-06 12:48:00,
2013-03-06 08:03:00,48.2,35.0,30.03,West,278,9.0,22.0,60,0.00,,,0.03,weatherlink.com 1.10,2013-03-06 13:03:00,
2013-03-06 08:18:00,49.2,35.0,30.03,NW,317,9.0,18.0,59,0.00,,,0.03,weatherlink.com 1.10,2013-03-06 13:18:00,
2013-03-06 08:33:00,49.7,36.0,30.03,WNW,294,12.0,18.0,59,0.00,,,0.03,weatherlink.com 1.10,2013-03-06 13:33:00,
2013-03-06 08:48:00,50.4,35.0,30.03,WNW,296,2.0,21.0,57,0.00,,,0.03,weatherlink.com 1.10,2013-03-06 13:48:00,
2013-03-06 09:03:00,50.6,36.0,30.03,NW,325,1.0,26.0,58,0.00,,,0.03,weatherlink.com 1.10,2013-03-06 14:03:00,
2013-03-06 09:18:00,51.3,35.0,30.04,NW,319,6.0,19.0,54,0.00,,,0.03,weatherlink.com 1.10,2013-03-06 14:18:00,
2013-03-06 09:33:00,52.3,35.0,30.04,SW,220,6.0,21.0,52,0.00,,,0.03,weatherlink.com 1.10,2013-03-06 14:33:00,
2013-03-06 09:48:00,52.7,34.0,30.04,North,355,4.0,21.0,50,0.00,,,0.03,weatherlink.com 1.10,2013-03-06 14:48:00,
2013-03-06 10:03:00,52.6,34.0,30.03,NNW,338,12.0,20.0,49,0.00,,,0.03,weatherlink.com 1.10,2013-03-06 15:03:00,
2013-03-06 10:18:00,53.5,33.0,30.03,WSW,252,11.0,20.0,46,0.00,,,0.03,weatherlink.com 1.10,2013-03-06 15:18:00,
2013-03-06 10:33:00,54.3,34.0,30.03,West,268,3.0,18.0,47,0.00,,,0.03,weatherlink.com 1.10,2013-03-06 15:33:00,
2013-03-06 10:48:00,54.7,34.0,30.04,West,279,7.0,21.0,45,0.00,,,0.03,weatherlink.com 1.10,2013-03-06 15:48:00,
2013-03-06 11:03:00,54.7,33.0,30.04,NNW,348,10.0,21.0,44,0.00,,,0.03,weatherlink.com 1.10,2013-03-06 16:03:00,
2013-03-06 11:18:00,55.9,33.0,30.03,NW,313,10.0,20.0,43,0.00,,,0.03,weatherlink.com 1.10,2013-03-06 16:18:00,
2013-03-06 11:33:00,55.9,32.0,30.03,West,269,6.0,22.0,41,0.00,,,0.03,weatherlink.com 1.10,2013-03-06 16:33:00,
2013-03-06 11:48:00,57.4,33.0,30.03,NNW,333,2.0,21.0,40,0.00,,,0.03,weatherlink.com 1.10,2013-03-06 16:48:00,
2013-03-06 12:03:00,58.3,34.0,30.02,North,355,5.0,21.0,40,0.00,,,0.03,weatherlink.com 1.10,2013-03-06 17:03:00,
2013-03-06 12:18:00,58.7,33.0,30.01,NNW,336,11.0,23.0,38,0.00,,,0.03,weatherlink.com 1.10,2013-03-06 17:18:00,
2013-03-06 12:33:00,59.0,35.0,30.01,NW,319,9.0,17.0,40,0.00,,,0.03,weatherlink.com 1.10,2013-03-06 17:33:00,
2013-03-06 12:48:00,59.7,34.0,30.00,WNW,289,4.0,18.0,39,0.00,,,0.03,weatherlink.com 1.10,2013-03-06 17:48:00,
2013-03-06 13:03:00,60.1,33.0,29.99,NNW,340,6.0,22.0,36,0.00,,,0.03,weatherlink.com 1.10,2013-03-06 18:03:00,
2013-03-06 13:18:00,60.3,32.0,29.98,WNW,301,11.0,20.0,34,0.00,,,0.03,weatherlink.com 1.10,2013-03-06 18:18:00,
2013-03-06 13:33:00,60.3,32.0,29.98,WNW,291,0.0,22.0,35,0.00,,,0.03,weatherlink.com 1.10,2013-03-06 18:33:00,
2013-03-06 13:48:00,60.9,34.0,29.97,NW,324,10.0,17.0,36,0.00,,,0.03,weatherlink.com 1.10,2013-03-06 18:48:00,
2013-03-06 14:03:00,61.8,32.0,29.96,SW,220,4.0,23.0,33,0.00,,,0.03,weatherlink.com 1.10,2013-03-06 19:03:00,
2013-03-06 14:18:00,61.3,32.0,29.95,WNW,298,14.0,23.0,33,0.00,,,0.03,weatherlink.com 1.10,2013-03-06 19:18:00,
2013-03-06 14:33:00,61.6,32.0,29.95,NNW,335,3.0,21.0,33,0.00,,,0.03,weatherlink.com 1.10,2013-03-06 19:33:00,
2013-03-06 14:48:00,62.2,32.0,29.95,NNW,334,13.0,21.0,32,0.00,,,0.03,weatherlink.com 1.10,2013-03-06 19:48:00,
2013-03-06 15:04:00,62.2,32.0,29.95,West,271,11.0,20.0,32,0.00,,,0.03,weatherlink.com 1.10,2013-03-06 20:04:00,
2013-03-06 15:18:00,61.9,31.0,29.95,North,5,8.0,23.0,31,0.00,,,0.03,weatherlink.com 1.10,2013-03-06 20:18:00,
2013-03-06 15:33:00,61.7,31.0,29.95,WNW,300,8.0,24.0,32,0.00,,,0.03,weatherlink.com 1.10,2013-03-06 20:33:00,
2013-03-06 15:48:00,61.0,32.0,29.95,NW,309,9.0,25.0,34,0.00,,,0.03,weatherlink.com 1.10,2013-03-06 20:48:00,
2013-03-06 16:03:00,61.8,34.0,29.95,West,281,10.0,23.0,35,0.00,,,0.03,weatherlink.com 1.10,2013-03-06 21:03:00,
2013-03-06 16:18:00,61.9,34.0,29.96,NW,316,6.0,17.0,35,0.00,,,0.03,weatherlink.com 1.10,2013-03-06 21:18:00,
2013-03-06 16:33:00,61.0,34.0,29.97,NW,311,11.0,28.0,36,0.00,,,0.03,weatherlink.com 1.10,2013-03-06 21:33:00,
2013-03-06 16:48:00,60.7,34.0,29.97,NNW,343,13.0,18.0,37,0.00,,,0.03,weatherlink.com 1.10,2013-03-06 21:48:00,
2013-03-06 17:03:00,60.5,35.0,29.98,NNW,328,4.0,17.0,38,0.00,,,0.03,weatherlink.com 1.10,2013-03-06 22:03:00,
2013-03-06 17:18:00,59.0,34.0,29.98,NNW,343,4.0,24.0,39,0.00,,,0.03,weatherlink.com 1.10,2013-03-06 22:18:00,
2013-03-06 17:33:00,57.3,33.0,29.99,WNW,290,8.0,19.0,40,0.00,,,0.03,weatherlink.com 1.10,2013-03-06 22:33:00,
2013-03-06 17:48:00,55.6,33.0,30.00,NW,316,4.0,14.0,43,0.00,,,0.03,weatherlink.com 1.10,2013-03-06 22:48:00,
2013-03-06 18:03:00,54.0,33.0,30.00,NW,315,3.0,14.0,45,0.00,,,0.03,weatherlink.com 1.10,2013-03-06 23:03:00,
2013-03-06 18:18:00,52.8,33.0,30.02,NW,326,9.0,14.0,47,0.00,,,0.03,weatherlink.com 1.10,2013-03-06 23:18:00,
2013-03-06 18:33:00,51.7,32.0,30.03,NW,317,4.0,20.0,48,0.00,,,0.03,weatherlink.com 1.10,2013-03-06 23:33:00,
2013-03-06 18:48:00,51.1,33.0,30.04,NW,304,4.0,15.0,50,0.00,,,0.03,weatherlink.com 1.10,2013-03-06 23:48:00,
2013-03-06 19:03:00,50.4,33.0,30.05,NW,315,3.0,17.0,51,0.00,,,0.03,weatherlink.com 1.10,2013-03-07 00:03:00,
2013-03-06 19:18:00,50.0,33.0,30.06,WNW,294,4.0,14.0,52,0.00,,,0.03,weatherlink.com 1.10,2013-03-07 00:18:00,
2013-03-06 19:33:00,49.7,33.0,30.06,NW,312,3.0,15.0,53,0.00,,,0.03,weatherlink.com 1.10,2013-03-07 00:33:00,
2013-03-06 19:48:00,49.2,33.0,30.08,NW,323,4.0,11.0,54,0.00,,,0.03,weatherlink.com 1.10,2013-03-07 00:48:00,
2013-03-06 20:03:00,48.7,33.0,30.08,WNW,290,5.0,9.0,56,0.00,,,0.03,weatherlink.com 1.10,2013-03-07 01:03:00,
2013-03-06 20:19:00,47.9,34.0,30.09,WNW,298,2.0,7.0,58,0.00,,,0.03,weatherlink.com 1.10,2013-03-07 01:19:00,
2013-03-06 20:34:00,47.3,33.0,30.09,NW,317,5.0,8.0,59,0.00,,,0.03,weatherlink.com 1.10,2013-03-07 01:34:00,
2013-03-06 20:49:00,47.2,34.0,30.10,NW,321,8.0,14.0,60,0.00,,,0.03,weatherlink.com 1.10,2013-03-07 01:49:00,
2013-03-06 21:04:00,47.1,34.0,30.11,West,278,4.0,8.0,60,0.00,,,0.03,weatherlink.com 1.10,2013-03-07 02:04:00,
2013-03-06 21:19:00,46.9,33.0,30.11,NNW,344,3.0,12.0,60,0.00,,,0.03,weatherlink.com 1.10,2013-03-07 02:19:00,
2013-03-06 21:34:00,46.6,34.0,30.11,NNW,344,4.0,9.0,61,0.00,,,0.03,weatherlink.com 1.10,2013-03-07 02:34:00,
2013-03-06 21:49:00,46.6,34.0,30.12,NNW,339,2.0,13.0,61,0.00,,,0.03,weatherlink.com 1.10,2013-03-07 02:49:00,
2013-03-06 22:04:00,46.5,34.0,30.13,NNW,337,6.0,13.0,61,0.00,,,0.03,weatherlink.com 1.10,2013-03-07 03:04:00,
2013-03-06 22:19:00,46.7,34.0,30.13,NNE,22,8.0,14.0,61,0.00,,,0.03,weatherlink.com 1.10,2013-03-07 03:19:00,
2013-03-06 22:34:00,46.5,33.0,30.13,North,351,5.0,16.0,60,0.00,,,0.03,weatherlink.com 1.10,2013-03-07 03:34:00,
2013-03-06 22:49:00,46.1,33.0,30.13,NNW,341,5.0,13.0,60,0.00,,,0.03,weatherlink.com 1.10,2013-03-07 03:49:00,
2013-03-06 23:04:00,45.5,33.0,30.13,NW,323,3.0,11.0,61,0.00,,,0.03,weatherlink.com 1.10,2013-03-07 04:04:00,
2013-03-06 23:19:00,45.1,33.0,30.13,NW,318,2.0,13.0,62,0.00,,,0.03,weatherlink.com 1.10,2013-03-07 04:19:00,
2013-03-06 23:34:00,44.9,32.0,30.14,North,349,6.0,14.0,62,0.00,,,0.03,weatherlink.com 1.10,2013-03-07 04:34:00,
2013-03-06 23:49:00,44.5,32.0,30.14,NNW,342,3.0,13.0,63,0.00,,,0.03,weatherlink.com 1.10,2013-03-07 04:49:00,